Weather in Minehead

United Kingdom     51°12′09″N   3°28′46″W
temp.,
°C
wind,
m/s
gust,
m/s
humid.,
%
clouds,
%
prec.,
mm/h
press.,
hPa
HPBL,
m
14 may, fri
fri1401:00+10n7991100 7.4 1009629
04:00+10nne5691100 1.3 1009463
07:00+10ne228626 1.5 1010307
10:00+10ene438752 0.3 1011312
13:00+10e44846 0.5 1010237
16:00+12se3478100 0.7 1009126
19:00+11ssw6789100 4.6 1007389
22:00+10wsw3384100 1.3 1006214
15 may, sat
sat1501:00+10s5781100 1.4 1004389
04:00+9sse81184100 1.8 1001953
07:00+9sse688953 2.1 1000428
10:00+11wsw57777 0.3 999638
13:00+12w7107233 1.0 999413
16:00+12w810716 0.3 999433
19:00+12wsw71077100 0.5 999680
22:00+10sw61080100 0.1 999579
16 may, sun
sun1601:00+9ssw6987100 0.6 998430
04:00+10ssw6108698 3.6 996653
07:00+10ssw6986100 5.4 995573
10:00+11s5888100 4.9 994584
13:00+11nnw45909 5.8 995334
16:00+12w8108511 0.6 996431
19:00+12w1012845 0.8 997461
22:00+11w9118468 0.0 1000713
17 may, mon
mon1701:00+11wsw6985100 0.1 1001375
04:00+11wsw7984100 0.0 1001411
07:00+11w81086100 0.1 1003556
10:00+10wnw10118732 0.4 1005653
13:00+10w1112765 0.4 1008881
16:00+11w1113775 0.0 10091145
19:00+11w1113795 0.0 10101093
22:00+11w12137836 0.2 10121044
18 may, tue
tue1801:00+10w11137978 0.9 10131099
04:00+10w11137922 0.2 10131064
07:00+10sw8118595 0.4 1013761
10:00+10sw6884100 0.9 1013512
13:00+11w71086100 3.6 1012971
16:00+11w7108336 0.6 1012863
19:00+11w810835 1.0 1012850
22:00+11wsw81084100 0.1 1012705